Regional Weather Roundup
Issued by NWS

Home | Current Version | Previous Version | Graphics & Text | Print | Product List | Glossary On
Versions: 1 2 3 4 5 6 7 8 9 10 11 12 13 14 15 16 17 18 19 20 21 22 23 24 25 26 27 28 29 30 31 32 33 34 35 36 37 38 39 40 41 42 43 44 45 46 47 48 49 50
168
ASUS43 KFSD 221110
RWRSD

WEATHER ROUNDUP FOR SOUTH DAKOTA
NATIONAL WEATHER SERVICE SIOUX FALLS SD
500 AM CST THU FEB 22 2018

NOTE: "FAIR" INDICATES FEW OR NO CLOUDS BELOW 12,000 FEET WITH NO
SIGNIFICANT WEATHER AND/OR OBSTRUCTIONS TO VISIBILITY.


SDZ001>005-009-010-012>017-221200-
NORTHWEST AND NORTH CENTRAL SOUTH DAKOTA

CITY           SKY/WX    TMP DP  RH WIND       PRES   REMARKS
BUFFALO          N/A     -6 -13  71 W6        30.06F WCI -19
FAITH            N/A     -9 -13  83 CALM      30.20S
MOBRIDGE       FAIR      -3  -9  75 MISG      30.27R
$$

SDZ012>016-024>037-041>051-057-063-072>074-221200-
SOUTHWEST AND SOUTH CENTRAL SOUTH DAKOTA

CITY           SKY/WX    TMP DP  RH WIND       PRES   REMARKS
RAPID CTY ARPT FAIR       0  -4  83 SE3       30.12F
PIERRE         FAIR       3   0  87 SE10      30.30F WCI -12
CUSTER         FAIR       9   3  77 NW5       29.99F WCI   1
ELLSWORTH AFB  FAIR      -3 -10  74 CALM      30.11F
PHILIP         FAIR      -2  -4  91 NE5       30.23F WCI -12
PINE RIDGE     FAIR      14   8  77 SW7       30.14F WCI   4
SPEARFISH        N/A      9   0  66 S5        30.07F WCI   0
WINNER         FAIR      15   9  76 S9        30.30F WCI   3
$$

SDZ004>011-016>023-039-040-221200-
NORTHEAST SOUTH DAKOTA

CITY           SKY/WX    TMP DP  RH WIND       PRES   REMARKS
ABERDEEN       FAIR       6   1  80 S8        30.41S WCI  -7
WATERTOWN      FAIR       6   2  83 S13       30.41S WCI -10
BROOKINGS      FAIR       7   3  84 SE9       30.45S WCI  -7
SISSETON         N/A      0  -6  76 S9        30.45F WCI -15
$$

SDZ017-020-022-023-036>040-048>070-221200-
SOUTHEAST SOUTH DAKOTA

CITY           SKY/WX    TMP DP  RH WIND       PRES   REMARKS
SIOUX FALLS    CLOUDY    14  10  84 E5        30.46S WCI   6
HURON          CLOUDY    11   5  77 SE12      30.43R WCI  -3
CHAMBERLAIN    FAIR       9   6  87 E8        30.36S WCI  -3
MITCHELL       CLOUDY    15  10  80 SE8       30.44F WCI   4
YANKTON        FAIR      16  12  84 E5        30.45F WCI   9
$$

ABBREVIATIONS USED IN REMARKS
   TC - TEMPERATURE IN CELSIUS
  WCI - WIND CHILL INDEX
   HX - HEAT INDEX
  VSB - VISIBILITY





USA.gov is the U.S. government's official web portal to all federal, state and local government web resources and services.